Alabaster, AL

2:09 AM CST on December 08, 2019 (GMT -0600)
Shelby County

Weather History for KEET - October, 2019

Change the Weather History Date:

Saturday, October 19, 2019

  Actual Average Record
Temperature  
Mean Temperature 59 °F 63 °F  
Max Temperature 62 °F 74 °F 90 °F (2016)
Min Temperature 56 °F 51 °F 30 °F (1978)
Degree Days  
Heating Degree Days 6 4  
Month to date heating degree days 36 46  
Since 1 July heating degree days 36 53  
Cooling Degree Days 0 2  
Month to date cooling degree days 164 60  
Year to date cooling degree days 2490 1944  
Growing Degree Days 10 (Base 50)    
Moisture  
Dew Point 54 °F    
Average Humidity 79    
Maximum Humidity 90    
Minimum Humidity 67    
Precipitation  
Precipitation 0.04 in 0.09 in 2.42 in (1970)
Month to date precipitation 0.56 1.82  
Year to date precipitation 34.43 43.73  
Snow  
Snow 0.00 in - - ()
Month to date snowfall 0.0  
Since 1 July snowfall 0.0  
Since 1 September snowfall 0.0  
Snow Depth 0.00 in    
Sea Level Pressure  
Sea Level Pressure 29.81 in    
Wind  
Wind Speed 5 mph (NE)    
Max Wind Speed 12 mph    
Max Gust Speed 19 mph    
Visibility 9 miles    
Events Rain    
T = Trace of Precipitation, MM = Missing Value Source: NWS Daily Summary

Daily Weather History Graph

Daily Weather History Graph

Search for Another Location

Airport or City:

Astronomy

Oct. 19, 2019 Rise Set
Actual Time 6:54 AM CDT 6:09 PM CDT
Civil Twilight 6:29 AM CDT 6:34 PM CDT
Nautical Twilight 6:00 AM CDT 7:03 PM CDT
Astronomical Twilight 5:31 AM CDT 7:31 PM CDT
Moon 10:30 PM CDT (10/19) 12:13 PM CDT (10/19)
Length of Visible Light 12h 04m
Length of Day
11h 14m
Waning Gibbous, 69% of the Moon is Illuminated
Oct 19
Waning Gibbous
Oct 21
Last Quarter
Oct 27
New
Nov 4
First Quarter
Nov 12
Full

Hourly Weather History & Observations

Time (CDT) Temp. Dew Point Humidity Pressure Visibility Wind Dir Wind Speed Gust Speed Precip Events Conditions
12:53 AM 57.0 °F 46.9 °F 69% 29.86 in 10.0 mi NE 3.5 mph - N/A   Partly Cloudy
1:53 AM 57.0 °F 46.9 °F 69% 29.84 in 10.0 mi NE 4.6 mph - N/A   Clear
2:53 AM 57.9 °F 46.9 °F 67% 29.84 in 10.0 mi Variable 5.8 mph - N/A   Clear
3:53 AM 57.9 °F 48.0 °F 70% 29.83 in 10.0 mi Variable 3.5 mph - N/A   Clear
4:23 AM 57.9 °F 48.9 °F 72% 29.84 in 10.0 mi Variable 3.5 mph - N/A   Mostly Cloudy
4:49 AM 57.2 °F 50.0 °F 77% 29.84 in 10.0 mi NE 3.5 mph - N/A   Overcast
4:53 AM 57.9 °F 50.0 °F 75% 29.83 in 10.0 mi Variable 6.9 mph - N/A   Overcast
5:11 AM 59.0 °F 50.0 °F 72% 29.84 in 10.0 mi ENE 5.8 mph - N/A   Overcast
5:53 AM 60.1 °F 52.0 °F 75% 29.83 in 10.0 mi Variable 5.8 mph - N/A   Overcast
6:00 AM 60.1 °F 52.0 °F 75% 29.84 in 10.0 mi Variable 4.6 mph - N/A   Overcast
6:10 AM 60.1 °F 52.0 °F 75% 29.84 in 10.0 mi Variable 5.8 mph - N/A   Overcast
6:48 AM 60.8 °F 53.6 °F 77% 29.84 in 10.0 mi Variable 4.6 mph - N/A   Overcast
6:53 AM 60.1 °F 53.1 °F 78% 29.83 in 10.0 mi ENE 8.1 mph - N/A   Overcast
7:53 AM 60.1 °F 54.0 °F 80% 29.83 in 10.0 mi Calm Calm - N/A   Overcast
8:00 AM 60.1 °F 55.0 °F 83% 29.84 in 10.0 mi ENE 5.8 mph - N/A   Overcast
8:23 AM 60.1 °F 55.9 °F 86% 29.84 in 6.0 mi Variable 3.5 mph - N/A   Overcast
8:39 AM 60.1 °F 55.9 °F 86% 29.84 in 10.0 mi North - - N/A   Overcast
8:53 AM 61.0 °F 57.0 °F 87% 29.83 in 10.0 mi Variable 4.6 mph - N/A   Overcast
9:00 AM 62.1 °F 57.0 °F 84% 29.85 in 8.0 mi East 8.1 mph - N/A   Overcast
9:35 AM 61.0 °F 57.9 °F 90% 29.85 in 1.8 mi ENE 4.6 mph - 0.00 in Rain Light Rain
9:53 AM 60.1 °F 59.0 °F 96% 29.84 in 1.2 mi Variable 5.8 mph - 0.01 in Rain Light Rain
10:24 AM 60.1 °F 59.0 °F 96% 29.84 in 3.0 mi NE 6.9 mph - 0.02 in Rain Light Rain
10:53 AM 60.1 °F 57.9 °F 93% 29.83 in 8.0 mi Variable 5.8 mph - 0.02 in   Overcast
11:50 AM 60.8 °F 57.2 °F 88% 29.82 in 5.0 mi ENE 8.1 mph - 0.00 in Rain Light Rain
11:53 AM 60.1 °F 57.0 °F 90% 29.81 in 3.0 mi ENE 5.8 mph - 0.00 in Rain Light Rain
12:53 PM 62.1 °F 57.9 °F 86% 29.79 in 10.0 mi Variable 6.9 mph - 0.01 in   Overcast
1:53 PM 62.1 °F 57.0 °F 84% 29.77 in 10.0 mi Variable 5.8 mph - N/A   Overcast
2:53 PM 62.1 °F 55.9 °F 80% 29.75 in 10.0 mi Variable 5.8 mph - N/A   Overcast
3:53 PM 61.0 °F 55.9 °F 83% 29.75 in 10.0 mi NNE 5.8 mph - N/A   Overcast
4:53 PM 60.1 °F 55.9 °F 86% 29.75 in 10.0 mi Variable 3.5 mph - N/A   Overcast
5:53 PM 60.1 °F 55.0 °F 83% 29.77 in 10.0 mi Variable 5.8 mph - N/A   Overcast
6:53 PM 60.1 °F 55.0 °F 83% 29.77 in 10.0 mi Variable 4.6 mph - N/A   Overcast
7:08 PM 60.1 °F 55.0 °F 83% 29.78 in 10.0 mi Variable 3.5 mph - N/A   Overcast
7:33 PM 60.1 °F 55.0 °F 83% 29.78 in 10.0 mi NE 4.6 mph - N/A   Overcast
7:51 PM 59.0 °F 55.4 °F 88% 29.78 in 10.0 mi Variable 4.6 mph - N/A   Overcast
7:53 PM 59.0 °F 55.0 °F 87% 29.78 in 10.0 mi Calm Calm - N/A   Overcast
8:53 PM 59.0 °F 55.0 °F 87% 29.79 in 10.0 mi Variable 4.6 mph - N/A   Overcast
9:23 PM 59.0 °F 55.0 °F 87% 29.80 in 10.0 mi Variable 3.5 mph - N/A   Overcast
9:53 PM 59.0 °F 54.0 °F 83% 29.80 in 10.0 mi Variable 3.5 mph - N/A   Overcast
10:53 PM 59.0 °F 54.0 °F 83% 29.81 in 10.0 mi Calm Calm - N/A   Overcast
11:00 PM 59.0 °F 54.0 °F 83% 29.82 in 10.0 mi NNW 3.5 mph - N/A   Overcast
11:53 PM 59.0 °F 54.0 °F 83% 29.80 in 10.0 mi NW 3.5 mph - N/A   Overcast